Location: Amarillo Post Office Jordan Station
(35.1907°N, 101.9342°W)
Time: 13:48:03
(UTC+00:00)

SL-8 R/B - Pass Details

Date: 24 January 2021
Orbit: 657 x 667 km, 48.4° (Epoch: 03 March)

Event Time Altitude Azimuth Distance (km) Brightness Sun altitude
Exits shadow 12:35:34 25° 302° (WNW) 1,344 4.7 -15.7°
Maximum altitude 12:38:23 77° 220° (SW) 684 3.7 -15.1°
Drops below altitude 10° 12:43:11 10° 134° (SE) 2,076 7.2 -14.2°
Sets 12:45:32 0° 133° (SE) 2,984 8.2 -13.7°
